Location: Unspecified
(49.2170°N, 0.0000°E)
Time: 02:27:16
(UTC+00:00)

Transit 4A - Pass Details

Date: 16 June 2019
Orbit: 863 x 981 km, 66.8° (Epoch: 17 August)

Event Time Altitude Azimuth Distance (km) Brightness Sun altitude
Rises 17:02:45 0° 324° (NW) 3,696 11.6 26.8°
Reaches altitude 10° 17:05:27 10° 330° (NNW) 2,744 11.0 26.3°
Maximum altitude 17:11:42 50° 45° (NE) 1,221 8.6 25.3°
Drops below altitude 10° 17:17:49 10° 120° (ESE) 2,689 9.9 24.3°
Sets 17:20:25 0° 126° (SE) 3,617 10.5 23.9°
